• Join FlightAware (Why Join?)
  • Login
  • US Flag GB Flag 
14:48 EST


 

Airport Tracker/Info


-or-


 

Live Flight TrackerFlight Track Log ✈ AWE1940 ✈ 21-Aug-2013 ✈ KTPA - KCLT

Flight Track Log - Related Links

Times and Time Zones

All times are in EDT time to prevent confusion due to time zone crossing. See the AWE1940 flight status page for this flight to view local times or setup timezone preferences in your user account.

Time Position Orientation Groundspeed Altitude Reporting Facility
EDT Latitude Longitude Course Direction KTS MPH feet Rate Location/Type
19:24 28.0000 -82.5333 19° North 159 183 600  Level Tampa TRACON
19:26 28.1203 -82.5583 350° North 256 295 4,900 2,262 Climbing Jacksonville Center
19:27 28.1997 -82.5675 354° North 277 319 7,800 2,800 Climbing Jacksonville Center
19:28 28.3957 -82.3484 19° North  Level FlightAware Approximate
19:28 28.2853 -82.5744 356° North 287 330 10,500  Level Jacksonville Center
19:29 28.5032 -82.3054 19° North  Level FlightAware Approximate
19:29 28.3811 -82.5789 358° North 318 366 11,900  Level Jacksonville Center
19:30 28.4875 -82.5831 358° North 356 410 14,200 2,500 Climbing Jacksonville Center
19:31 28.5942 -82.5922 356° North 374 430 16,900 2,200 Climbing Jacksonville Center
19:32 28.7025 -82.5944 359° North 385 443 18,600 1,800 Climbing Jacksonville Center
19:33 28.8133 -82.5986 358° North 385 443 20,500 1,700 Climbing Jacksonville Center
19:35 29.0469 -82.6100 358° North 408 470 23,700 1,533 Climbing Jacksonville Center
19:36 29.1661 -82.6144 358° North 420 483 25,100 1,500 Climbing Jacksonville Center
19:37 29.2892 -82.6186 358° North 425 489 26,700 1,600 Climbing Jacksonville Center
19:38 29.4103 -82.6208 359° North 425 489 28,300 1,850 Climbing Jacksonville Center
19:39 29.5458 -82.6228 359° North 431 496 30,400 1,400 Climbing Jacksonville Center
19:40 29.6692 -82.6153 North 431 496 31,100 1,300 Climbing Jacksonville Center
19:41 29.7903 -82.6053 North 437 503 33,000 1,450 Climbing Jacksonville Center
19:42 29.9133 -82.5956 North 437 503 34,000 1,000 Climbing Jacksonville Center
19:43 30.0094 -82.5903 North 437 503 35,000 500 Climbing Jacksonville Center
19:44 30.1472 -82.5850 North 437 503 35,000  Level Jacksonville Center
19:45 30.2725 -82.5728 North 442 509 35,000 -50 Level Jacksonville Center
19:46 30.3997 -82.5625 North 442 509 34,900 -50 Descending Jacksonville Center
19:47 30.5208 -82.5283 14° North 442 509 34,900  Level Jacksonville Center
19:48 30.6311 -82.4556 30° Northeast 442 509 34,900 50 Level Jacksonville Center
19:49 30.7331 -82.3706 36° Northeast 437 503 35,000 50 Climbing Jacksonville Center
19:50 30.8372 -82.2828 36° Northeast 448 516 35,000  Level Jacksonville Center
19:51 30.9411 -82.1997 34° Northeast 454 522 35,000  Level Jacksonville Center
19:52 31.0450 -82.1142 35° Northeast 454 522 35,000  Level Jacksonville Center
19:53 31.1508 -82.0283 35° Northeast 454 522 35,000  Level Jacksonville Center
19:54 31.2547 -81.9447 35° Northeast 449 517 35,000  Level Jacksonville Center
19:55 31.3647 -81.8489 37° Northeast 443 510 35,000  Level Jacksonville Center
19:56 31.4683 -81.7647 35° Northeast 443 510 35,000  Level Jacksonville Center
19:57 31.5700 -81.6806 35° Northeast 449 517 35,000  Level Jacksonville Center
19:58 31.6733 -81.5964 35° Northeast 451 519 35,000  Level Jacksonville Center
19:59 31.7667 -81.5192 35° Northeast 440 506 35,000  Level Jacksonville Center
20:00 31.8761 -81.4247 36° Northeast 446 513 35,000 -50 Level Jacksonville Center
20:01 31.9817 -81.3372 35° Northeast 454 522 34,900  Descending Jacksonville Center
20:02 32.0808 -81.2522 36° Northeast 443 510 35,000 50 Climbing Jacksonville Center
20:03 32.1903 -81.1717 32° Northeast 450 518 35,000  Level Jacksonville Center
20:04 32.3000 -81.0983 29° Northeast 450 518 35,000  Level Jacksonville Center
20:05 32.4139 -81.0272 28° Northeast 450 518 35,000  Level Jacksonville Center
20:06 32.5211 -80.9511 31° Northeast 449 517 35,000  Level Jacksonville Center
20:07 32.6306 -80.8797 29° Northeast 449 517 35,000  Level Jacksonville Center
20:08 32.7400 -80.8056 30° Northeast 455 524 35,000  Level Jacksonville Center
20:09 32.8517 -80.7314 29° Northeast 455 524 35,000 -100 Level Jacksonville Center
20:10 32.9650 -80.6569 29° Northeast 455 524 34,800 -800 Descending Jacksonville Center
20:11 33.0744 -80.5847 29° Northeast 455 524 33,400 -1,650 Descending Jacksonville Center
20:12 33.1858 -80.5075 30° Northeast 455 524 31,500 -1,900 Descending Jacksonville Center
20:13 33.3011 -80.4297 29° Northeast 455 524 29,600 -2,000 Descending Jacksonville Center
20:14 33.4103 -80.3544 30° Northeast 455 524 27,500 -2,250 Descending Jacksonville Center
20:15 33.5194 -80.2817 29° Northeast 455 524 25,100 -2,050 Descending Jacksonville Center
20:16 33.6242 -80.2089 30° Northeast 444 511 23,400 -1,550 Descending Jacksonville Center
20:17 33.7292 -80.1356 30° Northeast 439 505 22,000 -1,050 Descending Jacksonville Center
20:18 33.8317 -80.0625 31° Northeast 433 498 21,300 -800 Descending Jacksonville Center
20:19 33.9283 -79.9992 29° Northeast 416 479 20,400 -1,050 Descending Jacksonville Center
20:20 34.0208 -79.9311 31° Northeast 396 456 19,200 -1,200 Descending Jacksonville Center
20:21 34.1208 -79.9278 North 363 418 18,000 -1,150 Descending Jacksonville Center
20:22 34.2119 -79.9872 332° Northwest 340 391 16,900 -1,250 Descending Jacksonville Center
20:23 34.2986 -80.0422 332° Northwest 347 399 15,500 -1,450 Descending Jacksonville Center
20:24 34.3814 -80.0972 331° Northwest 342 394 14,000 -1,450 Descending Jacksonville Center
20:25 34.4617 -80.1503 331° Northwest 336 387 12,600 -1,150 Descending Jacksonville Center
20:26 34.5400 -80.2031 331° Northwest 325 374 11,700 -750 Descending Jacksonville Center
20:28 34.6253 -80.2625 330° Northwest 322 371 11,000 -359 Descending Atlanta Center
20:28 34.6814 -80.3206 320° Northwest 316 364 11,000  Level Atlanta Center
20:29 34.7353 -80.3839 316° Northwest 291 335 11,000  Level Atlanta Center
20:30 34.7961 -80.4622 313° West 292 336 11,000  Level Atlanta Center
20:31 34.8611 -80.5431 314° West 294 338 11,000  Level Atlanta Center
20:33 34.9214 -80.6139 316° Northwest 293 337 11,000 -197 Level Atlanta Center
20:34 34.9778 -80.6850 314° West 294 338 10,600 -934 Descending Atlanta Center
20:35 35.0317 -80.7564 313° West 291 335 9,100 -787 Descending Atlanta Center
20:36 35.0961 -80.8225 320° Northwest 291 335 9,000 -52 Descending Atlanta Center
20:36 35.1714 -80.8297 356° North 296 341 9,000 -563 Level Atlanta Center
20:38 35.2572 -80.8367 356° North 239 275 7,800 -1,125 Descending Atlanta Center
20:39 35.3156 -80.8419 356° North 243 280 6,600 -1,448 Descending Atlanta Center
20:40 35.3867 -80.8467 357° North 237 273 5,000 -1,279 Descending Atlanta Center
20:41 35.3967 -80.9075 281° West 193 222 4,000 -787 Descending Atlanta Center
20:42 35.3597 -80.9344 211° Southwest 146 168 3,400 -639 Descending Atlanta Center
20:43 35.3247 -80.9458 195° South 120 138 2,700 -678 Descending Atlanta Center
20:44 35.2911 -80.9447 178° South 127 146 2,100 -730 Descending Atlanta Center
20:45 35.2514 -80.9411 176° South 131 151 1,300 -787 Descending Atlanta Center